EW7512 Weather Reports


Display with metric or nautical units.
time (UTC)temp
F
wind
direction
speed
MPH
gust
MPH
rain 1hr
in
rain 24hr
in
rain mn
in
humidity
%
barometer
mb
20221210050512 59 196 1.0 7.0 0.00 0.00 0.00 91 1015.8
20221210050012 59 94 0.0 5.0 0.00 0.00 0.00 91 1015.7
20221210045512 59 113 1.0 7.0 0.00 0.00 0.00 91 1016.0
20221210045011 59 140 1.0 5.0 0.00 0.00 0.00 91 1016.0
20221210044518 59 108 1.0 5.0 0.00 0.00 0.00 91 1016.1
20221210044012 59 78 1.0 7.0 0.00 0.00 0.00 91 1016.0
20221210043514 59 228 1.0 7.0 0.00 0.00 0.00 91 1015.9
20221210043017 59 111 2.0 8.0 0.00 0.00 0.00 91 1015.7
20221210042511 59 124 3.0 8.0 0.00 0.00 0.00 92 1015.8
20221210042014 59 122 2.0 12.0 0.00 0.00 0.00 92 1015.7
20221210041511 59 126 5.0 12.0 0.00 0.00 0.00 92 1015.6
20221210041010 59 78 3.0 13.0 0.00 0.00 0.00 92 1015.6
20221210040510 59 220 4.0 13.0 0.00 0.00 0.00 92 1015.6
20221210040010 59 128 1.0 7.0 0.00 0.00 0.00 92 1015.5
20221210035509 59 121 3.0 7.0 0.00 0.00 0.00 92 1015.5
20221210035014 59 175 3.0 7.0 0.00 0.00 0.00 92 1015.4
20221210034510 59 114 1.0 8.0 0.00 0.00 0.00 92 1015.4
20221210034009 59 134 2.0 8.0 0.00 0.00 0.00 92 1015.4
20221210033509 59 151 2.0 9.0 0.00 0.00 0.00 93 1015.5
20221210033012 59 113 2.0 9.0 0.00 0.00 0.00 93 1015.6
20221210032509 59 148 2.0 8.0 0.00 0.00 0.00 93 1015.6
20221210032008 59 161 3.0 8.0 0.00 0.00 0.00 93 1015.5
20221210031508 59 128 1.0 4.0 0.00 0.00 0.00 93 1015.7
20221210031007 59 131 1.0 7.0 0.00 0.00 0.00 93 1015.7
20221210030508 59 193 1.0 7.0 0.00 0.00 0.00 93 1015.8
20221210030007 59 196 2.0 12.0 0.00 0.00 0.00 93 1015.7
20221210025507 59 67 0.0 12.0 0.00 0.00 0.00 93 1015.7
20221210025006 59 96 3.0 8.0 0.00 0.00 0.00 93 1015.7
20221210024508 59 145 2.0 9.0 0.00 0.00 0.00 92 1015.9
20221210024005 59 105 1.0 11.0 0.00 0.00 0.00 93 1016.0
20221210023504 59 134 3.0 11.0 0.00 0.00 0.00 93 1016.0
20221210023002 59 126 2.0 14.0 0.00 0.00 0.00 93 1016.0
20221210022501 59 138 2.0 6.0 0.00 0.00 0.00 93 1016.1
20221210022000 58 115 2.0 6.0 0.00 0.00 0.00 92 1016.1
20221210021500 58 14 1.0 3.0 0.00 0.00 0.00 92 1016.2
20221210021103 58 101 0.0 5.0 0.00 0.00 0.00 92 1016.2
20221210020600 58 116 1.0 8.0 0.00 0.00 0.00 92 1016.1
20221210020101 58 129 1.0 8.0 0.00 0.00 0.00 92 1016.1
20221210015600 58 117 1.0 6.0 0.00 0.00 0.00 93 1016.2
20221210015100 59 122 1.0 3.0 0.00 0.00 0.00 93 1016.2
20221210014606 59 136 0.0 6.0 0.00 0.00 0.00 93 1016.1
20221210014100 59 134 1.0 6.0 0.00 0.00 0.00 93 1016.2
20221210013600 59 111 1.0 11.0 0.00 0.00 0.00 93 1016.2
20221210013103 59 134 4.0 11.0 0.00 0.00 0.00 93 1016.1
20221210012558 59 128 2.0 7.0 0.00 0.00 0.00 93 1016.1
20221210012100 58 123 1.0 4.0 0.00 0.00 0.00 93 1016.4
20221210011603 58 105 0.0 5.0 0.00 0.00 0.00 93 1016.5
20221210011100 58 171 1.0 5.0 0.00 0.00 0.00 93 1016.3
20221210010556 58 101 1.0 9.0 0.00 0.00 0.00 92 1016.5
20221210010112 58 148 1.0 9.0 0.00 0.00 0.00 92 1016.5
20221210005556 58 137 1.0 4.0 0.00 0.00 0.00 92 1016.6
20221210005055 58 166 1.0 3.0 0.00 0.00 0.00 92 1016.8
20221210004556 58 126 0.0 3.0 0.00 0.00 0.00 92 1016.7
20221210004056 58 70 1.0 3.0 0.00 0.00 0.00 92 1016.5
20221210003555 58 48 0.0 10.0 0.00 0.00 0.00 92 1016.5
20221210003054 58 104 4.0 11.0 0.00 0.00 0.00 92 1016.3
20221210002553 58 146 1.0 6.0 0.00 0.00 0.00 92 1016.5
20221210002054 58 190 1.0 6.0 0.00 0.00 0.00 92 1016.5
20221210001633 58 92 1.0 7.0 0.00 0.00 0.00 92 1016.5
20221210001052 58 74 2.0 9.0 0.00 0.00 0.00 92 1016.5
20221210000551 58 111 3.0 9.0 0.00 0.00 0.00 92 1016.5
20221210000051 58 155 0.0 6.0 0.00 0.00 0.00 92 1016.7
20221209235550 58 203 1.0 4.0 0.00 0.00 0.00 92 1016.7
20221209235050 58 59 0.0 3.0 0.00 0.00 0.00 92 1016.7
20221209234550 58 20 0.0 3.0 0.00 0.00 0.00 91 1016.7
20221209234049 58 111 0.0 2.0 0.00 0.00 0.00 91 1016.8
20221209233550 58 111 0.0 2.0 0.00 0.00 0.00 91 1016.8
20221209233051 58 111 0.0 2.0 0.00 0.00 0.00 91 1016.8
20221209232552 58 110 0.0 1.0 0.00 0.00 0.00 91 1016.7
20221209232048 58 110 0.0 2.0 0.00 0.00 0.00 91 1016.8
20221209231552 58 110 0.0 2.0 0.00 0.00 0.00 92 1016.8
20221209231047 58 110 0.0 1.0 0.00 0.00 0.00 92 1016.8
20221209230551 58 111 0.0 1.0 0.00 0.00 0.00 92 1017.0
20221209230047 58 111 0.0 2.0 0.00 0.00 0.00 92 1016.9
20221209225547 58 177 0.0 3.0 0.00 0.00 0.00 92 1016.9
20221209225046 58 134 0.0 3.0 0.00 0.00 0.00 92 1017.0
20221209224546 58 132 0.0 4.0 0.00 0.00 0.00 92 1016.9
20221209224046 58 132 1.0 4.0 0.00 0.00 0.00 92 1016.8
20221209223545 58 152 0.0 1.0 0.00 0.00 0.00 92 1016.9
20221209223048 58 152 0.0 5.0 0.00 0.00 0.00 92 1017.1
20221209222542 58 134 0.0 3.0 0.00 0.00 0.00 92 1017.2
20221209222041 58 134 2.0 3.0 0.00 0.00 0.00 92 1017.3
20221209221543 58 141 0.0 4.0 0.00 0.00 0.00 92 1017.3
20221209221037 58 139 1.0 6.0 0.00 0.00 0.00 92 1017.2
20221209220537 58 121 1.0 6.0 0.00 0.00 0.00 92 1017.4
20221209220036 58 173 0.0 5.0 0.00 0.00 0.00 92 1017.5
20221209215537 58 178 2.0 5.0 0.00 0.00 0.00 92 1017.5
20221209215033 58 142 2.0 5.0 0.00 0.00 0.00 92 1017.6
20221209214534 58 123 0.0 3.0 0.00 0.00 0.00 92 1017.8
20221209214036 58 48 0.0 3.0 0.00 0.00 0.00 92 1018.0
20221209213533 58 319 0.0 4.0 0.00 0.00 0.00 92 1017.9
20221209213035 57 259 1.0 7.0 0.00 0.00 0.00 92 1017.8
20221209212533 57 186 2.0 7.0 0.00 0.00 0.00 92 1017.7
20221209212035 57 163 0.0 3.0 0.00 0.00 0.00 92 1017.7
20221209211532 57 163 1.0 5.0 0.00 0.00 0.00 92 1017.7
20221209211033 57 162 2.0 5.0 0.00 0.00 0.00 92 1017.7
20221209210532 57 182 1.0 4.0 0.00 0.00 0.00 92 1017.6
20221209210041 57 155 1.0 5.0 0.00 0.00 0.00 92 1017.7
20221209205533 57 157 2.0 6.0 0.00 0.00 0.00 93 1017.6
20221209205031 57 142 3.0 6.0 0.00 0.00 0.00 93 1017.9
20221209204538 57 137 2.0 5.0 0.00 0.00 0.00 93 1017.9
20221209204032 57 132 1.0 5.0 0.00 0.00 0.00 93 1018.3
20221209203530 57 135 1.0 5.0 0.00 0.00 0.00 93 1018.3
20221209203037 57 136 2.0 9.0 0.00 0.00 0.00 93 1018.3
20221209202531 57 152 3.0 9.0 0.00 0.00 0.00 93 1018.2
20221209202028 57 144 2.0 4.0 0.00 0.00 0.00 93 1018.1
20221209201530 57 153 1.0 5.0 0.00 0.00 0.00 93 1018.1
20221209201028 57 159 1.0 4.0 0.00 0.00 0.00 93 1018.2
20221209200530 57 141 2.0 5.0 0.00 0.00 0.00 93 1018.2
20221209200027 57 181 1.0 4.0 0.00 0.00 0.00 93 1018.4
20221209195526 57 130 1.0 3.0 0.00 0.00 0.00 93 1018.4
20221209195027 57 131 1.0 3.0 0.00 0.00 0.00 92 1018.4
20221209194539 56 153 0.0 4.0 0.00 0.00 0.00 92 1018.4
20221209194026 56 144 1.0 3.0 0.00 0.00 0.00 92 1018.4
20221209193527 56 122 0.0 2.0 0.00 0.00 0.00 92 1018.5
20221209193032 56 123 0.0 2.0 0.00 0.00 0.00 92 1018.5
20221209192526 56 121 0.0 2.0 0.00 0.00 0.00 91 1018.4
20221209192032 56 152 0.0 3.0 0.00 0.00 0.00 91 1018.4
20221209191622 56 94 0.0 3.0 0.00 0.00 0.00 91 1018.5
20221209191025 56 133 0.0 3.0 0.00 0.00 0.00 91 1018.5
20221209190525 56 173 0.0 0.0 0.00 0.00 0.00 91 1018.4
20221209190027 56 173 0.0 0.0 0.00 0.00 0.00 91 1018.4
20221209185525 56 172 0.0 1.0 0.00 0.00 0.00 90 1018.3
20221209185024 56 173 0.0 2.0 0.00 0.00 0.00 90 1018.4
20221209184524 56 173 0.0 2.0 0.00 0.00 0.00 90 1018.5
20221209184030 56 180 0.0 1.0 0.00 0.00 0.00 90 1018.6
20221209183524 56 180 0.0 1.0 0.00 0.00 0.00 90 1018.5
20221209183023 57 180 0.0 1.0 0.00 0.00 0.00 89 1018.5
20221209182523 57 180 0.0 0.0 0.00 0.00 0.00 89 1018.5
20221209182023 57 181 0.0 0.0 0.00 0.00 0.00 89 1018.6
20221209181523 57 180 0.0 1.0 0.00 0.00 0.00 89 1018.5
20221209181025 57 181 0.0 2.0 0.00 0.00 0.00 89 1018.5
20221209180523 57 181 0.0 2.0 0.00 0.00 0.00 89 1018.4
20221209180023 57 180 0.0 2.0 0.00 0.00 0.00 89 1018.5
20221209175523 57 180 0.0 1.0 0.00 0.00 0.00 88 1018.6
20221209175022 57 180 0.0 1.0 0.00 0.00 0.00 88 1018.6
20221209174524 57 180 0.0 2.0 0.00 0.00 0.00 88 1018.6
20221209174022 57 180 0.0 2.0 0.00 0.00 0.00 88 1018.7
20221209173522 57 180 0.0 3.0 0.00 0.00 0.00 88 1018.6
20221209173029 57 180 0.0 6.0 0.00 0.00 0.00 88 1018.7
20221209172525 57 198 0.0 8.0 0.00 0.00 0.00 88 1018.6
20221209172021 57 164 2.0 8.0 0.00 0.00 0.00 88 1018.6
20221209171522 57 139 0.0 6.0 0.00 0.00 0.00 88 1018.6
20221209171022 58 194 2.0 6.0 0.00 0.00 0.00 88 1018.6
20221209170522 58 131 1.0 4.0 0.00 0.00 0.00 88 1018.6
20221209170035 58 167 0.0 5.0 0.00 0.00 0.00 88 1018.7
20221209165521 58 164 0.0 5.0 0.00 0.00 0.00 87 1018.7
20221209165021 58 155 0.0 3.0 0.00 0.00 0.00 87 1018.7
20221209164530 58 116 0.0 2.0 0.00 0.00 0.00 87 1018.7
20221209164020 58 116 0.0 4.0 0.00 0.00 0.00 87 1018.8
20221209163522 58 121 0.0 8.0 0.00 0.00 0.00 87 1018.9
20221209163025 58 210 2.0 8.0 0.00 0.00 0.00 87 1018.8
20221209162522 58 138 3.0 8.0 0.00 0.00 0.00 87 1018.9
20221209162024 58 148 0.0 4.0 0.00 0.00 0.00 87 1018.9
20221209161525 59 192 1.0 4.0 0.00 0.00 0.00 87 1018.9
20221209161023 59 156 0.0 6.0 0.00 0.00 0.00 87 1018.9
20221209160520 59 165 1.0 7.0 0.00 0.00 0.00 87 1019.0
20221209160020 59 136 1.0 5.0 0.00 0.00 0.00 86 1019.0
20221209155519 59 159 1.0 7.0 0.00 0.00 0.00 86 1018.9
20221209155023 59 168 3.0 7.0 0.00 0.00 0.00 86 1018.9
20221209154019 59 169 2.0 8.0 0.00 0.00 0.00 86 1018.8
20221209153519 59 186 1.0 9.0 0.00 0.00 0.00 86 1018.8
20221209153018 59 163 3.0 9.0 0.00 0.00 0.00 85 1018.9
20221209152518 59 132 2.0 6.0 0.00 0.00 0.00 85 1018.9
20221209152018 60 167 1.0 5.0 0.00 0.00 0.00 85 1018.8
20221209151526 60 141 0.0 4.0 0.00 0.00 0.00 85 1018.8
20221209151017 60 166 1.0 7.0 0.00 0.00 0.00 85 1018.7
20221209150516 60 158 2.0 7.0 0.00 0.00 0.00 84 1018.8
20221209150017 60 165 0.0 5.0 0.00 0.00 0.00 84 1018.8
20221209145518 60 167 1.0 6.0 0.00 0.00 0.00 83 1018.7
20221209145016 60 169 1.0 6.0 0.00 0.00 0.00 83 1018.6
20221209144516 60 152 1.0 5.0 0.00 0.00 0.00 82 1018.6
20221209144016 61 186 0.0 5.0 0.00 0.00 0.00 82 1018.6
20221209143516 61 163 2.0 8.0 0.00 0.00 0.00 82 1018.6
20221209143017 61 155 3.0 8.0 0.00 0.00 0.00 81 1018.6
20221209142517 61 185 2.0 8.0 0.00 0.00 0.00 81 1018.6
20221209142015 61 214 1.0 8.0 0.00 0.00 0.00 80 1018.5
20221209141515 61 154 3.0 9.0 0.00 0.00 0.00 80 1018.5
20221209141015 61 157 3.0 11.0 0.00 0.00 0.00 80 1018.5
20221209140515 61 165 3.0 11.0 0.00 0.00 0.00 79 1018.6
20221209140015 61 178 5.0 13.0 0.00 0.00 0.00 79 1018.5
20221209135516 62 183 3.0 10.0 0.00 0.00 0.00 79 1018.5
20221209135017 62 205 4.0 13.0 0.00 0.00 0.00 79 1018.5
20221209134514 62 161 4.0 13.0 0.00 0.00 0.00 78 1018.5
20221209134014 62 165 2.0 9.0 0.00 0.00 0.00 78 1018.6
20221209133514 62 174 2.0 8.0 0.00 0.00 0.00 77 1018.5
20221209133013 63 128 3.0 8.0 0.00 0.00 0.00 77 1018.5
20221209132513 63 155 1.0 10.0 0.00 0.00 0.00 77 1018.5
20221209132014 63 173 1.0 10.0 0.00 0.00 0.00 77 1018.6
20221209131513 63 167 3.0 11.0 0.00 0.00 0.00 77 1018.5
20221209131017 63 148 4.0 11.0 0.00 0.00 0.00 77 1018.5
20221209130512 63 125 1.0 7.0 0.00 0.00 0.00 77 1018.5
20221209130033 63 145 3.0 9.0 0.00 0.00 0.00 77 1018.5
20221209125515 63 103 4.0 9.0 0.00 0.00 0.00 76 1018.5
20221209125012 63 138 4.0 11.0 0.00 0.00 0.00 76 1018.6
20221209124513 63 159 3.0 10.0 0.00 0.00 0.00 76 1018.6
20221209124012 63 141 2.0 10.0 0.00 0.00 0.00 76 1018.5
20221209123512 63 162 5.0 10.0 0.00 0.00 0.00 76 1018.5
20221209123013 64 119 4.0 6.0 0.00 0.00 0.00 76 1018.6
20221209122512 64 139 1.0 7.0 0.00 0.00 0.00 76 1018.5
20221209122011 63 160 1.0 12.0 0.00 0.00 0.00 76 1018.5
20221209121516 63 198 2.0 12.0 0.00 0.00 0.00 76 1018.5
20221209121010 64 155 1.0 8.0 0.00 0.00 0.00 76 1018.4
20221209120510 63 134 2.0 8.0 0.00 0.00 0.00 76 1018.5
20221209120010 64 178 2.0 9.0 0.00 0.00 0.00 76 1018.5
20221209115509 64 165 3.0 9.0 0.00 0.00 0.00 76 1018.5
20221209115008 64 161 1.0 8.0 0.00 0.00 0.00 77 1018.5
20221209114508 64 191 3.0 11.0 0.00 0.00 0.00 76 1018.7
20221209114011 63 175 5.0 11.0 0.00 0.00 0.00 77 1018.6
20221209113508 63 135 2.0 10.0 0.00 0.00 0.00 77 1018.6
20221209113007 63 171 0.0 7.0 0.00 0.00 0.00 78 1018.6
20221209112507 63 129 1.0 10.0 0.00 0.00 0.00 77 1018.8
20221209112006 64 144 4.0 10.0 0.00 0.00 0.00 76 1018.8
20221209111509 64 179 2.0 7.0 0.00 0.00 0.00 77 1018.8
20221209111005 64 131 2.0 7.0 0.00 0.00 0.00 77 1018.9
20221209110504 64 132 1.0 12.0 0.00 0.00 0.00 77 1018.8
20221209110004 63 178 3.0 14.0 0.00 0.00 0.00 76 1018.9
20221209105504 63 137 7.0 14.0 0.00 0.00 0.00 77 1019.0
20221209105007 64 97 6.0 12.0 0.00 0.00 0.00 77 1019.1
20221209104506 63 175 3.0 10.0 0.00 0.00 0.00 77 1019.0
20221209104002 63 155 4.0 11.0 0.00 0.00 0.00 77 1019.1
20221209103501 63 188 4.0 11.0 0.00 0.00 0.00 79 1019.1
20221209103110 63 181 2.0 10.0 0.00 0.00 0.00 79 1019.1
20221209102603 63 151 4.0 12.0 0.00 0.00 0.00 79 1019.2
20221209102059 63 226 4.0 12.0 0.00 0.00 0.00 79 1019.3
20221209101600 63 155 3.0 10.0 0.00 0.00 0.00 81 1019.3
20221209101059 62 144 3.0 10.0 0.00 0.00 0.00 80 1019.3
20221209100600 63 202 3.0 10.0 0.00 0.00 0.00 80 1019.3
20221209100059 63 119 2.0 10.0 0.00 0.00 0.00 80 1019.4
20221209095559 63 116 3.0 10.0 0.00 0.00 0.00 80 1019.6
20221209095059 63 116 2.0 9.0 0.00 0.00 0.00 80 1019.7
20221209094558 63 141 3.0 9.0 0.00 0.00 0.00 79 1019.7
20221209094058 63 171 3.0 9.0 0.00 0.00 0.00 79 1019.7
20221209093601 63 196 2.0 9.0 0.00 0.00 0.00 78 1019.7
20221209093058 63 138 2.0 9.0 0.00 0.00 0.00 79 1019.9
20221209092555 63 140 2.0 8.0 0.00 0.00 0.00 79 1020.0
20221209092055 63 161 3.0 7.0 0.00 0.00 0.00 79 1020.1
20221209091555 63 142 2.0 8.0 0.00 0.00 0.00 80 1020.1
20221209091056 62 199 3.0 8.0 0.00 0.00 0.00 80 1020.3
20221209090553 62 175 3.0 9.0 0.00 0.00 0.00 80 1020.3
20221209090056 62 140 2.0 9.0 0.00 0.00 0.00 82 1020.2
20221209085553 62 159 4.0 10.0 0.00 0.00 0.00 81 1020.3
20221209085052 62 120 2.0 10.0 0.00 0.00 0.00 81 1020.5
20221209084552 62 163 1.0 8.0 0.00 0.00 0.00 81 1020.5
20221209084052 62 167 3.0 12.0 0.00 0.00 0.00 82 1020.5
20221209083551 62 217 3.0 12.0 0.00 0.00 0.00 83 1020.5
20221209083051 62 167 2.0 9.0 0.00 0.00 0.00 84 1020.5
20221209082551 62 119 0.0 12.0 0.00 0.00 0.00 86 1020.4
20221209082047 61 144 1.0 12.0 0.00 0.00 0.00 86 1020.5
20221209081546 61 148 2.0 6.0 0.00 0.00 0.00 87 1020.6
20221209081045 60 160 1.0 6.0 0.00 0.00 0.00 89 1020.6
20221209080543 60 130 0.0 5.0 0.00 0.00 0.00 90 1020.6
20221209080042 59 195 1.0 5.0 0.00 0.00 0.00 90 1020.6
20221209075542 59 121 1.0 5.0 0.00 0.00 0.00 90 1020.6
20221209075043 59 165 1.0 7.0 0.00 0.00 0.00 91 1020.5
20221209074543 59 143 3.0 7.0 0.00 0.00 0.00 91 1020.5
20221209074039 59 127 2.0 7.0 0.00 0.00 0.00 91 1020.5
20221209073537 59 125 2.0 5.0 0.00 0.00 0.00 92 1020.6
20221209073042 59 88 0.0 3.0 0.00 0.00 0.00 92 1020.7
20221209072538 58 113 1.0 6.0 0.00 0.00 0.00 92 1020.6
20221209072034 58 125 1.0 8.0 0.00 0.00 0.00 92 1020.5
20221209071546 58 193 3.0 8.0 0.00 0.00 0.00 92 1020.6
20221209071033 58 172 2.0 5.0 0.00 0.00 0.00 93 1020.5
20221209070531 57 148 1.0 5.0 0.00 0.00 0.00 93 1020.6
20221209070037 57 142 2.0 6.0 0.00 0.00 0.00 93 1020.5
20221209065530 57 158 2.0 5.0 0.00 0.00 0.00 93 1020.5
20221209065029 57 151 2.0 6.0 0.00 0.00 0.00 93 1020.5
20221209064538 56 129 2.0 6.0 0.00 0.00 0.00 93 1020.5
20221209064029 56 143 2.0 7.0 0.00 0.00 0.00 93 1020.4
20221209063525 56 212 3.0 7.0 0.00 0.00 0.00 93 1020.3
20221209063024 56 178 2.0 7.0 0.00 0.00 0.00 93 1020.1
20221209062523 56 165 3.0 7.0 0.00 0.00 0.00 93 1020.1
20221209062023 56 153 1.0 5.0 0.00 0.00 0.00 93 1020.1
20221209061522 56 152 1.0 5.0 0.00 0.00 0.00 93 1020.0
20221209061025 56 158 2.0 5.0 0.00 0.00 0.00 93 1020.0
20221209060521 56 171 2.0 5.0 0.00 0.00 0.00 93 1019.9
20221209060037 55 200 3.0 6.0 0.00 0.00 0.00 93 1019.9
20221209055520 55 175 2.0 4.0 0.00 0.00 0.00 93 1019.9
20221209055020 55 155 2.0 5.0 0.00 0.00 0.00 93 1019.9
20221209054520 55 186 3.0 5.0 0.00 0.00 0.00 93 1019.9
20221209054018 55 131 1.0 5.0 0.00 0.00 0.00 92 1019.9
20221209053517 55 146 1.0 4.0 0.00 0.00 0.00 92 1019.9
20221209053028 55 142 1.0 3.0 0.00 0.00 0.00 92 1020.0
20221209052517 55 138 0.0 3.0 0.00 0.00 0.00 92 1019.9
20221209052015 55 138 1.0 3.0 0.00 0.00 0.00 92 1019.9
20221209051514 55 138 0.0 3.0 0.00 0.00 0.00 92 1019.8
20221209051015 55 138 1.0 3.0 0.00 0.00 0.00 92 1019.8